Weather History for Billings, MT

Change the Weather History Date:

Sunday, December 16, 2012

  Actual Average Record
Temperature  
Mean Temperature 28 °F 26 °F  
Max Temperature 39 °F 35 °F 67 °F (1980)
Min Temperature 17 °F 17 °F -26 °F (1964)
Degree Days  
Heating Degree Days 37 39  
Month to date heating degree days 488 604  
Since 1 July heating degree days 1870 2232  
Cooling Degree Days 0 0  
Month to date cooling degree days 0 0  
Year to date cooling degree days 958 636  
Moisture  
Dew Point 17 °F    
Average Humidity 72    
Maximum Humidity 100    
Minimum Humidity 44    
Precipitation  
Precipitation 0.00 in 0.02 in 0.65 in (1955)
Month to date precipitation 0.09 0.27  
Year to date precipitation 6.95 13.43  
Snow  
Snow 0.00 in 0.20 in 13.00 in (1955)
Month to date snowfall 1.0 4.1  
Since 1 July snowfall 12.6 15.8  
Snow Depth 0.00 in    
Sea Level Pressure  
Sea Level Pressure 29.73 in    
Wind  
Wind Speed 13 mph (WSW)    
Max Wind Speed 26 mph    
Max Gust Speed 31 mph    
Visibility 10 miles    
Events Fog    
T = Trace of Precipitation, MM = Missing Value Source: NWS Daily Summary

Daily Weather History Graph

Daily Weather History Graph

Search for Another Location

Airport:

Trip Planner

Search our weather history database for the weather conditions in past years. The results will help you decide how hot, cold, wet, or windy it might be!

Date:

Astronomy

Dec. 16, 2012 Rise Set
Actual Time 7:49 AM MST 4:30 PM MST
Civil Twilight 7:15 AM MST 5:05 PM MST
Nautical Twilight 6:37 AM MST 5:42 PM MST
Astronomical Twilight 6:01 AM MST 6:19 PM MST
Moon 10:15 AM MST (12/16) 8:59 PM MST (12/16)
Length of Visible Light 9h 49m
Length of Day
8h 40m
Waxing Crescent, 16% of the Moon is Illuminated
Dec 16
Waxing Crescent
Dec 19
First Quarter
Dec 28
Full
Jan 4
Last Quarter
Jan 11
New

Hourly Weather History & Observations

Time (MST) Temp. Windchill Dew Point Humidity Pressure Visibility Wind Dir Wind Speed Gust Speed Precip Events Conditions
12:53 AM 24.8 °F 15.3 °F 21.2 °F 86% 29.60 in 10.0 mi SW 9.2 mph - N/A   Clear
1:53 AM 21.0 °F 10.6 °F 19.0 °F 92% 29.68 in 10.0 mi WSW 9.2 mph - N/A   Clear
2:53 AM 19.9 °F 9.3 °F 19.0 °F 96% 29.68 in 10.0 mi SSW 9.2 mph - N/A   Clear
3:43 AM 17.6 °F 4.3 °F 17.6 °F 100% 29.57 in 8.0 mi SW 12.7 mph - N/A Fog Partly Cloudy
3:53 AM 19.9 °F 7.3 °F 18.0 °F 92% 29.67 in 9.0 mi SW 12.7 mph - N/A Fog Partly Cloudy
4:53 AM 19.0 °F 6.8 °F 16.0 °F 88% 29.68 in 10.0 mi SW 11.5 mph - N/A   Clear
5:53 AM 18.0 °F 6.1 °F 15.1 °F 88% 29.69 in 10.0 mi SW 10.4 mph - N/A   Clear
6:53 AM 19.9 °F 6.2 °F 17.1 °F 89% 29.70 in 10.0 mi WSW 15.0 mph - N/A   Scattered Clouds
7:53 AM 19.9 °F 6.7 °F 16.0 °F 85% 29.71 in 10.0 mi SW 13.8 mph - N/A   Mostly Cloudy
8:53 AM 21.0 °F 7.1 °F 17.1 °F 85% 29.72 in 10.0 mi SW 16.1 mph - N/A   Mostly Cloudy
9:53 AM 23.0 °F 10.6 °F 18.0 °F 81% 29.74 in 10.0 mi SW 13.8 mph - N/A   Mostly Cloudy
10:53 AM 26.1 °F 14.0 °F 18.0 °F 71% 29.74 in 10.0 mi SW 15.0 mph - N/A   Mostly Cloudy
11:53 AM 28.0 °F 16.1 °F 19.9 °F 72% 29.74 in 10.0 mi SW 16.1 mph - N/A   Mostly Cloudy
12:53 PM 34.0 °F 24.6 °F 19.0 °F 54% 29.72 in 10.0 mi SW 13.8 mph - N/A   Scattered Clouds
1:53 PM 39.0 °F 29.6 °F 19.0 °F 45% 29.72 in 10.0 mi West 18.4 mph 24.2 mph N/A   Clear
2:53 PM 35.1 °F 23.8 °F 19.9 °F 54% 29.75 in 10.0 mi West 20.7 mph 27.6 mph N/A   Scattered Clouds
3:53 PM 35.1 °F 26.4 °F 17.1 °F 48% 29.76 in 10.0 mi West 12.7 mph 24.2 mph N/A   Scattered Clouds
4:53 PM 33.1 °F 22.2 °F 16.0 °F 50% 29.78 in 10.0 mi West 17.3 mph 24.2 mph N/A   Partly Cloudy
5:53 PM 28.0 °F 17.5 °F 17.1 °F 63% 29.80 in 10.0 mi NW 12.7 mph - N/A   Partly Cloudy
6:53 PM 30.0 °F 17.9 °F 14.0 °F 51% 29.81 in 10.0 mi West 18.4 mph - N/A   Clear
7:53 PM 27.0 °F 17.3 °F 12.9 °F 56% 29.81 in 10.0 mi SW 10.4 mph - N/A   Clear
8:53 PM 27.0 °F 16.1 °F 10.9 °F 51% 29.80 in 10.0 mi WSW 12.7 mph - N/A   Clear
9:53 PM 26.1 °F 15.0 °F 12.9 °F 58% 29.77 in 10.0 mi WSW 12.7 mph - N/A   Clear
10:53 PM 25.0 °F 13.6 °F 17.1 °F 72% 29.74 in 10.0 mi WSW 12.7 mph - N/A   Clear
11:53 PM 21.9 °F 13.4 °F 15.1 °F 75% 29.70 in 10.0 mi SW 6.9 mph - N/A   Clear